Time,TemperatureF,DewpointF,PressureIn,WindDirection,WindDirectionDegrees,WindSpeedMPH,WindSpeedGustMPH,Humidity,HourlyPrecipIn,Conditions,Clouds,dailyrainin,SolarRadiationWatts/m^2,SoftwareType,DateUTC
2013-06-27 00:00:00,60.3,59.4,30.04,SW,225,0.0,0.0,97,0.00,CLR,,0.00,0.0,WeatherDisplay:10.37,2013-06-26 14:00:00,
2013-06-27 00:05:00,60.1,59.2,30.04,SW,225,0.0,0.0,97,0.00,CLR,,0.00,0.0,WeatherDisplay:10.37,2013-06-26 14:05:00,
2013-06-27 00:10:00,59.7,58.9,30.04,SW,225,0.0,0.0,97,0.00,CLR,,0.00,0.0,WeatherDisplay:10.37,2013-06-26 14:10:00,
2013-06-27 00:15:00,59.4,58.5,30.04,SW,225,0.0,0.0,97,0.00,CLR,,0.00,0.0,WeatherDisplay:10.37,2013-06-26 14:15:00,
2013-06-27 00:20:00,59.1,58.3,30.03,SW,225,0.0,0.0,97,0.00,CLR,,0.00,0.0,WeatherDisplay:10.37,2013-06-26 14:20:00,
2013-06-27 00:25:00,59.0,58.2,30.03,SW,225,0.0,1.0,97,0.00,CLR,,0.00,0.0,WeatherDisplay:10.37,2013-06-26 14:25:00,
2013-06-27 00:30:00,59.0,58.1,30.04,SW,225,1.0,2.0,97,0.00,CLR,,0.00,0.0,WeatherDisplay:10.37,2013-06-26 14:30:00,
2013-06-27 00:35:00,58.5,57.9,30.04,SW,225,0.0,1.0,98,0.00,CLR,,0.00,0.0,WeatherDisplay:10.37,2013-06-26 14:35:00,
2013-06-27 00:40:00,58.3,58.0,30.04,SW,216,0.0,0.0,99,0.00,CLR,,0.00,0.0,WeatherDisplay:10.37,2013-06-26 14:40:00,
2013-06-27 00:45:00,58.1,57.8,30.04,SSW,199,1.0,3.0,99,0.00,CLR,,0.00,0.0,WeatherDisplay:10.37,2013-06-26 14:45:00,
2013-06-27 00:50:00,57.9,57.6,30.04,SSE,148,2.0,3.0,99,0.00,CLR,,0.00,0.0,WeatherDisplay:10.37,2013-06-26 14:50:00,
2013-06-27 00:55:00,57.6,57.3,30.04,SE,135,2.0,3.0,99,0.00,CLR,,0.00,0.0,WeatherDisplay:10.37,2013-06-26 14:55:00,
2013-06-27 01:00:00,57.1,56.8,30.04,SE,135,0.0,3.0,99,0.00,CLR,,0.00,0.0,WeatherDisplay:10.37,2013-06-26 15:00:00,
2013-06-27 01:05:00,56.7,56.4,30.03,SE,135,0.0,0.0,99,0.00,CLR,,0.00,0.0,WeatherDisplay:10.37,2013-06-26 15:05:00,
2013-06-27 01:10:00,56.3,56.0,30.03,SE,135,0.0,0.0,99,0.00,CLR,,0.00,0.0,WeatherDisplay:10.37,2013-06-26 15:10:00,
2013-06-27 01:15:00,56.3,56.0,30.03,SE,135,0.0,0.0,99,0.00,CLR,,0.00,0.0,WeatherDisplay:10.37,2013-06-26 15:15:00,
2013-06-27 01:20:00,56.5,56.2,30.03,SE,135,0.0,0.0,99,0.00,CLR,,0.00,0.0,WeatherDisplay:10.37,2013-06-26 15:20:00,
2013-06-27 01:25:00,56.7,56.4,30.03,SE,135,0.0,0.0,99,0.00,CLR,,0.00,0.0,WeatherDisplay:10.37,2013-06-26 15:25:00,
2013-06-27 01:30:00,56.3,56.1,30.03,SE,135,0.0,0.0,99,0.00,CLR,,0.00,0.0,WeatherDisplay:10.37,2013-06-26 15:30:00,
2013-06-27 01:35:00,55.9,55.7,30.02,SE,135,0.0,0.0,99,0.00,CLR,,0.00,0.0,WeatherDisplay:10.37,2013-06-26 15:35:00,
2013-06-27 01:40:00,55.6,55.3,30.03,SE,135,0.0,0.0,99,0.00,CLR,,0.00,0.0,WeatherDisplay:10.37,2013-06-26 15:40:00,
2013-06-27 01:45:00,55.4,55.1,30.02,SE,135,0.0,0.0,99,0.00,CLR,,0.00,0.0,WeatherDisplay:10.37,2013-06-26 15:45:00,
2013-06-27 01:50:00,55.2,54.4,30.02,SE,135,0.0,0.0,97,0.00,CLR,,0.00,0.0,WeatherDisplay:10.37,2013-06-26 15:50:00,
2013-06-27 01:55:00,55.4,55.1,30.02,SE,135,0.0,0.0,99,0.00,CLR,,0.00,0.0,WeatherDisplay:10.37,2013-06-26 15:55:00,
2013-06-27 02:00:00,55.4,55.1,30.03,SE,135,0.0,0.0,99,0.00,CLR,,0.00,0.0,WeatherDisplay:10.37,2013-06-26 16:00:00,
2013-06-27 02:05:00,55.2,54.4,30.02,SE,135,0.0,0.0,97,0.00,CLR,,0.00,0.0,WeatherDisplay:10.37,2013-06-26 16:05:00,
2013-06-27 02:10:00,55.2,54.4,30.01,SE,135,0.0,0.0,97,0.00,CLR,,0.00,0.0,WeatherDisplay:10.37,2013-06-26 16:10:00,
2013-06-27 02:15:00,55.0,54.2,30.02,ENE,73,0.0,0.0,97,0.00,CLR,,0.00,0.0,WeatherDisplay:10.37,2013-06-26 16:15:00,
2013-06-27 02:20:00,54.9,54.0,30.02,North,8,0.0,0.0,97,0.00,CLR,,0.00,0.0,WeatherDisplay:10.37,2013-06-26 16:20:00,
2013-06-27 02:25:00,54.7,53.8,30.02,North,0,0.0,0.0,97,0.00,CLR,,0.00,0.0,WeatherDisplay:10.37,2013-06-26 16:25:00,
2013-06-27 02:30:00,54.5,53.7,30.02,NE,44,0.0,0.0,97,0.00,CLR,,0.00,0.0,WeatherDisplay:10.37,2013-06-26 16:30:00,
2013-06-27 02:35:00,54.3,53.5,30.02,East,89,0.0,0.0,97,0.00,CLR,,0.00,0.0,WeatherDisplay:10.37,2013-06-26 16:35:00,
2013-06-27 02:40:00,54.1,53.3,30.02,East,90,0.0,0.0,97,0.00,CLR,,0.00,0.0,WeatherDisplay:10.37,2013-06-26 16:40:00,
2013-06-27 02:45:00,54.1,53.3,30.02,SE,144,0.0,0.0,97,0.00,CLR,,0.00,0.0,WeatherDisplay:10.37,2013-06-26 16:45:00,
2013-06-27 02:50:00,54.1,53.3,30.02,South,180,0.0,0.0,97,0.00,CLR,,0.00,0.0,WeatherDisplay:10.37,2013-06-26 16:50:00,
2013-06-27 02:55:00,54.1,53.3,30.01,South,180,0.0,1.0,97,0.00,CLR,,0.00,0.0,WeatherDisplay:10.37,2013-06-26 16:55:00,
2013-06-27 03:00:00,54.0,53.1,30.02,South,180,2.0,3.0,97,0.00,CLR,,0.00,0.0,WeatherDisplay:10.37,2013-06-26 17:00:00,
2013-06-27 03:05:00,53.7,52.8,30.02,South,180,1.0,3.0,97,0.00,CLR,,0.00,0.0,WeatherDisplay:10.37,2013-06-26 17:05:00,
2013-06-27 03:10:00,53.6,52.8,30.02,South,180,0.0,2.0,97,0.00,CLR,,0.00,0.0,WeatherDisplay:10.37,2013-06-26 17:10:00,
2013-06-27 03:15:00,53.1,52.5,30.02,South,180,0.0,1.0,98,0.00,CLR,,0.00,0.0,WeatherDisplay:10.37,2013-06-26 17:15:00,
2013-06-27 03:20:00,53.1,52.5,30.01,South,180,0.0,2.0,98,0.00,CLR,,0.00,0.0,WeatherDisplay:10.37,2013-06-26 17:20:00,
2013-06-27 03:25:00,53.1,52.5,30.02,South,180,0.0,0.0,98,0.00,CLR,,0.00,0.0,WeatherDisplay:10.37,2013-06-26 17:25:00,
2013-06-27 03:30:00,52.9,52.3,30.01,South,180,0.0,0.0,98,0.00,CLR,,0.00,0.0,WeatherDisplay:10.37,2013-06-26 17:30:00,
2013-06-27 03:35:00,52.7,52.2,30.01,South,180,0.0,0.0,98,0.00,CLR,,0.00,0.0,WeatherDisplay:10.37,2013-06-26 17:35:00,
2013-06-27 03:40:00,52.7,52.2,30.01,South,180,0.0,0.0,98,0.00,CLR,,0.00,0.0,WeatherDisplay:10.37,2013-06-26 17:40:00,
2013-06-27 03:45:00,52.5,52.0,30.01,SSE,165,0.0,0.0,98,0.00,CLR,,0.00,0.0,WeatherDisplay:10.37,2013-06-26 17:45:00,
2013-06-27 03:50:00,52.3,51.8,30.01,SE,142,0.0,0.0,98,0.00,CLR,,0.00,0.0,WeatherDisplay:10.37,2013-06-26 17:50:00,
2013-06-27 03:55:00,52.3,51.8,30.01,SE,135,0.0,0.0,98,0.00,CLR,,0.00,0.0,WeatherDisplay:10.37,2013-06-26 17:55:00,
2013-06-27 04:00:00,52.2,51.6,30.01,SE,135,0.0,0.0,98,0.00,CLR,,0.00,0.0,WeatherDisplay:10.37,2013-06-26 18:00:00,
2013-06-27 04:05:00,52.2,51.6,30.01,SE,135,0.0,0.0,98,0.00,CLR,,0.00,0.0,WeatherDisplay:10.37,2013-06-26 18:05:00,
2013-06-27 04:10:00,52.2,51.6,30.01,SSE,157,0.0,0.0,98,0.00,CLR,,0.00,0.0,WeatherDisplay:10.37,2013-06-26 18:10:00,
2013-06-27 04:20:00,52.2,51.6,30.01,South,177,0.0,0.0,98,0.00,CLR,,0.00,0.0,WeatherDisplay:10.37,2013-06-26 18:20:00,
2013-06-27 04:25:00,52.2,51.6,30.01,South,180,0.0,0.0,98,0.00,CLR,,0.00,0.0,WeatherDisplay:10.37,2013-06-26 18:25:00,
2013-06-27 04:30:00,52.2,51.6,30.00,South,180,0.0,0.0,98,0.00,CLR,,0.00,0.0,WeatherDisplay:10.37,2013-06-26 18:30:00,
2013-06-27 04:35:00,52.0,51.4,30.00,South,180,0.0,0.0,98,0.00,CLR,,0.00,0.0,WeatherDisplay:10.37,2013-06-26 18:35:00,
2013-06-27 04:40:00,51.8,51.3,30.00,South,180,0.0,0.0,98,0.00,CLR,,0.00,0.0,WeatherDisplay:10.37,2013-06-26 18:40:00,
2013-06-27 04:45:00,51.8,51.3,30.01,South,180,0.0,0.0,98,0.00,CLR,,0.00,0.0,WeatherDisplay:10.37,2013-06-26 18:45:00,
2013-06-27 04:50:00,51.6,51.3,30.01,South,180,0.0,0.0,99,0.00,CLR,,0.00,0.0,WeatherDisplay:10.37,2013-06-26 18:50:00,
2013-06-27 04:55:00,51.6,51.3,30.01,South,180,0.0,0.0,99,0.00,CLR,,0.00,0.0,WeatherDisplay:10.37,2013-06-26 18:55:00,
2013-06-27 05:00:00,51.6,51.3,30.01,SSE,167,1.0,3.0,99,0.00,CLR,,0.00,0.0,WeatherDisplay:10.37,2013-06-26 19:00:00,
2013-06-27 05:05:00,51.4,51.2,30.01,SSE,168,1.0,3.0,99,0.00,CLR,,0.00,0.0,WeatherDisplay:10.37,2013-06-26 19:05:00,
2013-06-27 05:10:00,51.6,51.3,30.01,South,180,0.0,2.0,99,0.00,CLR,,0.00,0.0,WeatherDisplay:10.37,2013-06-26 19:10:00,
2013-06-27 05:15:00,51.6,51.3,30.01,South,180,0.0,1.0,99,0.00,CLR,,0.00,0.0,WeatherDisplay:10.37,2013-06-26 19:15:00,
2013-06-27 05:20:00,51.8,51.3,30.01,South,180,0.0,2.0,98,0.00,CLR,,0.00,0.0,WeatherDisplay:10.37,2013-06-26 19:20:00,
2013-06-27 05:25:00,51.8,51.3,30.01,South,180,0.0,0.0,98,0.00,CLR,,0.00,0.0,WeatherDisplay:10.37,2013-06-26 19:25:00,
2013-06-27 05:30:00,51.8,51.3,30.01,SSE,156,0.0,0.0,98,0.00,CLR,,0.00,0.0,WeatherDisplay:10.37,2013-06-26 19:30:00,
2013-06-27 05:35:00,51.8,51.3,30.01,SE,135,1.0,2.0,98,0.00,CLR,,0.00,0.0,WeatherDisplay:10.37,2013-06-26 19:35:00,
2013-06-27 05:40:00,51.8,51.3,30.01,SE,135,1.0,3.0,98,0.00,CLR,,0.00,0.0,WeatherDisplay:10.37,2013-06-26 19:40:00,
2013-06-27 05:45:00,51.8,51.3,30.02,SE,135,1.0,2.0,98,0.00,CLR,,0.00,0.0,WeatherDisplay:10.37,2013-06-26 19:45:00,
2013-06-27 05:50:00,52.0,51.4,30.02,SSE,159,2.0,3.0,98,0.00,CLR,,0.00,0.0,WeatherDisplay:10.37,2013-06-26 19:50:00,
2013-06-27 05:55:00,52.0,51.4,30.02,South,169,1.0,3.0,98,0.00,CLR,,0.00,0.0,WeatherDisplay:10.37,2013-06-26 19:55:00,
2013-06-27 06:00:00,52.0,51.4,30.02,SSE,150,1.0,2.0,98,0.00,CLR,,0.00,0.0,WeatherDisplay:10.37,2013-06-26 20:00:00,
2013-06-27 06:05:00,52.2,51.6,30.02,SSE,160,1.0,2.0,98,0.00,CLR,,0.00,0.0,WeatherDisplay:10.37,2013-06-26 20:05:00,
2013-06-27 06:10:00,52.2,51.6,30.02,South,177,0.0,2.0,98,0.00,CLR,,0.00,0.0,WeatherDisplay:10.37,2013-06-26 20:10:00,
2013-06-27 06:15:00,52.2,51.6,30.02,South,180,0.0,2.0,98,0.00,CLR,,0.00,0.0,WeatherDisplay:10.37,2013-06-26 20:15:00,
2013-06-27 06:20:00,52.0,51.4,30.02,South,180,1.0,2.0,98,0.00,CLR,,0.00,0.0,WeatherDisplay:10.37,2013-06-26 20:20:00,
2013-06-27 06:25:00,51.8,51.3,30.02,SSE,168,0.0,2.0,98,0.00,CLR,,0.00,0.0,WeatherDisplay:10.37,2013-06-26 20:25:00,
2013-06-27 06:35:00,51.8,51.3,30.02,South,180,0.0,0.0,98,0.00,CLR,,0.00,0.0,WeatherDisplay:10.37,2013-06-26 20:35:00,
2013-06-27 06:40:00,52.0,51.4,30.02,South,180,0.0,2.0,98,0.00,CLR,,0.00,0.0,WeatherDisplay:10.37,2013-06-26 20:40:00,
2013-06-27 06:45:00,52.2,51.6,30.02,South,174,2.0,3.0,98,0.00,CLR,,0.00,0.0,WeatherDisplay:10.37,2013-06-26 20:45:00,
2013-06-27 06:50:00,52.0,51.4,30.02,SSE,161,1.0,4.0,98,0.00,CLR,,0.00,3.2,WeatherDisplay:10.37,2013-06-26 20:50:00,
2013-06-27 06:55:00,52.0,51.4,30.02,SE,146,1.0,3.0,98,0.00,CLR,,0.00,7.3,WeatherDisplay:10.37,2013-06-26 20:55:00,
2013-06-27 07:00:00,52.1,51.5,30.03,SE,135,1.0,2.0,98,0.00,BKN,,0.00,13.9,WeatherDisplay:10.37,2013-06-26 21:00:00,
2013-06-27 07:05:00,52.2,51.6,30.03,SE,142,1.0,2.0,98,0.00,BKN,,0.00,19.7,WeatherDisplay:10.37,2013-06-26 21:05:00,
2013-06-27 07:10:00,52.3,51.8,30.03,SSE,167,0.0,2.0,98,0.00,BKN,,0.00,29.7,WeatherDisplay:10.37,2013-06-26 21:10:00,
2013-06-27 07:15:00,52.7,52.2,30.03,South,180,0.0,1.0,98,0.00,BKN,,0.00,35.8,WeatherDisplay:10.37,2013-06-26 21:15:00,
2013-06-27 07:20:00,53.1,52.6,30.03,South,180,0.0,0.0,98,0.00,SCT,,0.00,51.4,WeatherDisplay:10.37,2013-06-26 21:20:00,
2013-06-27 07:25:00,54.0,53.1,30.03,SSE,168,1.0,2.0,97,0.00,CLR,,0.00,67.6,WeatherDisplay:10.37,2013-06-26 21:25:00,
2013-06-27 07:30:00,54.4,53.5,30.03,SE,144,1.0,2.0,97,0.00,CLR,,0.00,72.0,WeatherDisplay:10.37,2013-06-26 21:30:00,
2013-06-27 07:40:00,54.2,53.3,30.03,SE,135,1.0,2.0,97,0.00,CLR,,0.00,42.0,WeatherDisplay:10.37,2013-06-26 21:40:00,
2013-06-27 07:45:00,54.3,53.5,30.04,SE,142,2.0,4.0,97,0.00,CLR,,0.00,28.0,WeatherDisplay:10.37,2013-06-26 21:45:00,
2013-06-27 07:50:00,54.9,54.1,30.04,SE,141,0.0,3.0,97,0.00,CLR,,0.00,14.0,WeatherDisplay:10.37,2013-06-26 21:50:00,
2013-06-27 07:55:00,56.0,55.7,30.04,SE,135,0.0,2.0,99,0.00,CLR,,0.00,180.6,WeatherDisplay:10.37,2013-06-26 21:55:00,
2013-06-27 08:00:00,57.7,57.4,30.04,SE,135,0.0,1.0,99,0.00,OVC,,0.00,217.7,WeatherDisplay:10.37,2013-06-26 22:00:00,
2013-06-27 08:05:00,59.7,59.4,30.04,ESE,114,0.0,1.0,99,0.00,OVC,,0.00,244.3,WeatherDisplay:10.37,2013-06-26 22:05:00,
2013-06-27 08:10:00,60.0,59.7,30.04,ENE,61,0.0,2.0,99,0.00,OVC,,0.00,278.0,WeatherDisplay:10.37,2013-06-26 22:10:00,
2013-06-27 08:15:00,60.9,60.4,30.04,North,4,0.0,2.0,98,0.00,OVC,,0.00,300.0,WeatherDisplay:10.37,2013-06-26 22:15:00,
2013-06-27 08:20:00,62.1,61.5,30.04,NW,324,0.0,0.0,98,0.00,OVC,,0.00,318.8,WeatherDisplay:10.37,2013-06-26 22:20:00,
2013-06-27 08:25:00,63.1,61.6,30.04,SW,222,2.0,4.0,95,0.00,OVC,,0.00,343.8,WeatherDisplay:10.37,2013-06-26 22:25:00,
2013-06-27 08:30:00,62.6,60.3,30.04,South,188,1.0,3.0,92,0.00,OVC,,0.00,365.9,WeatherDisplay:10.37,2013-06-26 22:30:00,
2013-06-27 08:35:00,63.1,60.1,30.04,South,180,2.0,5.0,90,0.00,OVC,,0.00,395.1,WeatherDisplay:10.37,2013-06-26 22:35:00,
2013-06-27 08:40:00,62.4,59.1,30.04,South,180,2.0,6.0,89,0.00,OVC,,0.00,421.7,WeatherDisplay:10.37,2013-06-26 22:40:00,
2013-06-27 08:45:00,63.5,60.2,30.05,South,180,3.0,6.0,89,0.00,OVC,,0.00,453.7,WeatherDisplay:10.37,2013-06-26 22:45:00,
2013-06-27 08:50:00,63.8,60.2,30.04,South,180,1.0,6.0,88,0.00,OVC,,0.00,485.4,WeatherDisplay:10.37,2013-06-26 22:50:00,
2013-06-27 08:55:00,66.8,63.1,30.05,South,180,1.0,2.0,88,0.00,OVC,,0.00,521.9,WeatherDisplay:10.37,2013-06-26 22:55:00,
2013-06-27 09:00:00,69.0,64.3,30.05,South,180,0.0,2.0,85,0.00,OVC,,0.00,545.7,WeatherDisplay:10.37,2013-06-26 23:00:00,
2013-06-27 09:05:00,70.5,62.9,30.05,South,180,1.0,3.0,77,0.00,OVC,,0.00,567.6,WeatherDisplay:10.37,2013-06-26 23:05:00,
2013-06-27 09:10:00,70.0,60.9,30.05,South,180,1.0,3.0,73,0.00,OVC,,0.00,594.1,WeatherDisplay:10.37,2013-06-26 23:10:00,
2013-06-27 09:15:00,71.1,62.0,30.05,South,180,0.0,2.0,73,0.00,OVC,,0.00,612.5,WeatherDisplay:10.37,2013-06-26 23:15:00,
2013-06-27 09:20:00,73.7,63.7,30.05,South,180,1.0,2.0,71,0.00,OVC,,0.00,639.7,WeatherDisplay:10.37,2013-06-26 23:20:00,
2013-06-27 09:25:00,74.3,63.1,30.06,South,180,1.0,2.0,68,0.00,OVC,,0.00,660.1,WeatherDisplay:10.37,2013-06-26 23:25:00,
2013-06-27 09:30:00,72.7,60.2,30.06,South,180,2.0,5.0,65,0.00,OVC,,0.00,685.0,WeatherDisplay:10.37,2013-06-26 23:30:00,
2013-06-27 09:35:00,72.0,60.8,30.06,South,180,0.0,5.0,68,0.00,OVC,,0.00,705.3,WeatherDisplay:10.37,2013-06-26 23:35:00,
2013-06-27 09:40:00,72.9,61.3,30.05,South,190,5.0,6.0,67,0.00,OVC,,0.00,730.2,WeatherDisplay:10.37,2013-06-26 23:40:00,
2013-06-27 09:45:00,71.4,60.7,30.06,South,187,2.0,6.0,69,0.00,OVC,,0.00,755.6,WeatherDisplay:10.37,2013-06-26 23:45:00,
2013-06-27 09:50:00,70.9,61.1,30.06,South,180,3.0,7.0,71,0.00,OVC,,0.00,776.7,WeatherDisplay:10.37,2013-06-26 23:50:00,
2013-06-27 09:55:00,72.4,62.0,30.05,South,180,2.0,5.0,70,0.00,OVC,,0.00,796.0,WeatherDisplay:10.37,2013-06-26 23:55:00,
2013-06-27 10:00:00,73.9,62.3,30.05,South,180,1.0,5.0,67,0.00,OVC,,0.00,840.4,WeatherDisplay:10.37,2013-06-27 00:00:00,
2013-06-27 10:05:00,75.0,62.5,30.05,South,180,2.0,5.0,65,0.00,OVC,,0.00,845.2,WeatherDisplay:10.37,2013-06-27 00:05:00,
2013-06-27 10:10:00,75.7,62.7,30.05,South,180,0.0,3.0,64,0.00,OVC,,0.00,840.9,WeatherDisplay:10.37,2013-06-27 00:10:00,
2013-06-27 10:15:00,77.1,62.6,30.05,South,180,2.0,4.0,61,0.00,OVC,,0.00,894.0,WeatherDisplay:10.37,2013-06-27 00:15:00,
2013-06-27 10:20:00,76.8,62.3,30.05,South,180,5.0,7.0,61,0.00,OVC,,0.00,915.4,WeatherDisplay:10.37,2013-06-27 00:20:00,
2013-06-27 10:25:00,74.1,61.6,30.04,SSE,157,3.0,8.0,65,0.00,OVC,,0.00,921.8,WeatherDisplay:10.37,2013-06-27 00:25:00,
2013-06-27 10:30:00,74.9,62.8,30.04,SE,139,2.0,6.0,66,0.00,OVC,,0.00,934.8,WeatherDisplay:10.37,2013-06-27 00:30:00,
2013-06-27 10:35:00,76.4,62.4,30.05,SE,135,1.0,4.0,62,0.00,OVC,,0.00,962.0,WeatherDisplay:10.37,2013-06-27 00:35:00,
2013-06-27 10:40:00,76.5,63.0,30.03,SE,135,1.0,6.0,63,0.00,OVC,,0.00,983.6,WeatherDisplay:10.37,2013-06-27 00:40:00,
2013-06-27 10:45:00,76.1,62.6,30.04,SE,142,2.0,7.0,63,0.00,OVC,,0.00,1002.6,WeatherDisplay:10.37,2013-06-27 00:45:00,
2013-06-27 10:50:00,76.2,61.8,30.03,SE,126,7.0,10.0,61,0.00,OVC,,0.00,1013.2,WeatherDisplay:10.37,2013-06-27 00:50:00,
2013-06-27 10:55:00,75.8,61.4,30.04,SE,129,3.0,8.0,61,0.00,OVC,,0.00,1029.3,WeatherDisplay:10.37,2013-06-27 00:55:00,
2013-06-27 11:00:00,76.3,60.9,30.04,SE,135,3.0,6.0,59,0.00,OVC,,0.00,1037.5,WeatherDisplay:10.37,2013-06-27 01:00:00,
2013-06-27 11:05:00,77.0,61.5,30.04,SE,135,2.0,4.0,59,0.00,OVC,,0.00,1053.1,WeatherDisplay:10.37,2013-06-27 01:05:00,
2013-06-27 11:10:00,77.7,61.3,30.03,SE,135,5.0,7.0,57,0.00,OVC,,0.00,1069.7,WeatherDisplay:10.37,2013-06-27 01:10:00,
2013-06-27 11:15:00,77.4,61.0,30.03,SE,135,3.0,8.0,57,0.00,OVC,,0.00,1078.8,WeatherDisplay:10.37,2013-06-27 01:15:00,
2013-06-27 11:20:00,76.4,61.0,30.03,NW,315,2.0,8.0,59,0.00,OVC,,0.00,1080.5,WeatherDisplay:10.37,2013-06-27 01:20:00,
2013-06-27 11:25:00,76.9,61.4,30.02,NW,323,5.0,9.0,59,0.00,OVC,,0.00,1089.8,WeatherDisplay:10.37,2013-06-27 01:25:00,
2013-06-27 11:30:00,77.1,60.2,30.02,North,355,6.0,9.0,56,0.00,OVC,,0.00,1101.9,WeatherDisplay:10.37,2013-06-27 01:30:00,
2013-06-27 11:35:00,77.4,60.5,30.02,NW,325,3.0,8.0,56,0.00,OVC,,0.00,1112.2,WeatherDisplay:10.37,2013-06-27 01:35:00,
2013-06-27 11:40:00,78.1,61.1,30.02,NW,315,7.0,10.0,56,0.00,OVC,,0.00,1114.2,WeatherDisplay:10.37,2013-06-27 01:40:00,
2013-06-27 11:45:00,77.4,60.5,30.01,NW,315,2.0,8.0,56,0.00,OVC,,0.00,1131.9,WeatherDisplay:10.37,2013-06-27 01:45:00,
2013-06-27 11:50:00,78.5,61.0,30.01,NW,315,6.0,12.0,55,0.00,OVC,,0.00,1142.8,WeatherDisplay:10.37,2013-06-27 01:50:00,
2013-06-27 11:55:00,77.4,59.9,30.00,NW,315,5.0,13.0,55,0.00,OVC,,0.00,1138.0,WeatherDisplay:10.37,2013-06-27 01:55:00,
2013-06-27 12:05:00,78.6,61.6,30.00,NW,315,6.0,10.0,56,0.00,OVC,,0.00,1158.2,WeatherDisplay:10.37,2013-06-27 02:05:00,
2013-06-27 12:10:00,78.1,61.1,30.01,NW,315,6.0,8.0,56,0.00,OVC,,0.00,1158.0,WeatherDisplay:10.37,2013-06-27 02:10:00,
2013-06-27 12:15:00,78.1,61.6,30.00,NW,315,6.0,12.0,57,0.00,OVC,,0.00,1158.6,WeatherDisplay:10.37,2013-06-27 02:15:00,
2013-06-27 12:20:00,78.2,61.7,30.00,NW,315,6.0,8.0,57,0.00,OVC,,0.00,1177.5,WeatherDisplay:10.37,2013-06-27 02:20:00,
2013-06-27 12:25:00,78.1,61.1,30.00,NW,315,3.0,7.0,56,0.00,OVC,,0.00,1219.5,WeatherDisplay:10.37,2013-06-27 02:25:00,
2013-06-27 12:30:00,79.4,62.3,29.99,NW,315,6.0,8.0,56,0.00,OVC,,0.00,1180.9,WeatherDisplay:10.37,2013-06-27 02:30:00,
2013-06-27 12:35:00,78.7,61.7,29.99,NW,315,6.0,10.0,56,0.00,OVC,,0.00,1178.2,WeatherDisplay:10.37,2013-06-27 02:35:00,
2013-06-27 12:40:00,77.7,61.2,29.99,NW,315,5.0,8.0,57,0.00,OVC,,0.00,1171.7,WeatherDisplay:10.37,2013-06-27 02:40:00,
2013-06-27 12:45:00,78.4,62.4,29.99,NW,315,7.0,11.0,58,0.00,OVC,,0.00,1210.1,WeatherDisplay:10.37,2013-06-27 02:45:00,
2013-06-27 12:50:00,79.2,61.6,29.99,NW,315,7.0,11.0,55,0.00,OVC,,0.00,1168.8,WeatherDisplay:10.37,2013-06-27 02:50:00,
2013-06-27 13:00:00,78.7,61.7,29.98,NW,315,6.0,9.0,56,0.00,OVC,,0.00,1221.3,WeatherDisplay:10.37,2013-06-27 03:00:00,
2013-06-27 13:05:00,78.5,62.0,29.98,NW,315,5.0,9.0,57,0.00,OVC,,0.00,1185.1,WeatherDisplay:10.37,2013-06-27 03:05:00,
2013-06-27 13:10:00,79.4,61.9,29.98,NW,315,1.0,9.0,55,0.00,OVC,,0.00,1162.5,WeatherDisplay:10.37,2013-06-27 03:10:00,
2013-06-27 13:15:00,79.9,61.8,29.97,NW,315,5.0,12.0,54,0.00,OVC,,0.00,1201.8,WeatherDisplay:10.37,2013-06-27 03:15:00,
2013-06-27 13:25:00,78.4,61.9,29.97,NW,315,2.0,9.0,57,0.00,OVC,,0.00,1203.7,WeatherDisplay:10.37,2013-06-27 03:25:00,
2013-06-27 13:30:00,79.0,61.5,29.97,NW,315,7.0,12.0,55,0.00,OVC,,0.00,226.1,WeatherDisplay:10.37,2013-06-27 03:30:00,
2013-06-27 13:35:00,76.4,62.4,29.96,NW,315,7.0,11.0,62,0.00,OVC,,0.00,779.9,WeatherDisplay:10.37,2013-06-27 03:35:00,
2013-06-27 13:40:00,77.2,62.7,29.96,NW,315,3.0,10.0,61,0.00,OVC,,0.00,1107.9,WeatherDisplay:10.37,2013-06-27 03:40:00,
2013-06-27 13:45:00,78.8,62.3,29.96,NW,315,9.0,13.0,57,0.00,OVC,,0.00,1118.5,WeatherDisplay:10.37,2013-06-27 03:45:00,
2013-06-27 13:55:00,77.7,62.7,29.96,NW,315,7.0,13.0,60,0.00,OVC,,0.00,1133.8,WeatherDisplay:10.37,2013-06-27 03:55:00,
2013-06-27 14:00:00,77.4,62.9,29.95,NW,315,7.0,13.0,61,0.00,OVC,,0.00,1073.9,WeatherDisplay:10.37,2013-06-27 04:00:00,
2013-06-27 14:05:00,78.2,63.2,29.95,NW,315,10.0,15.0,60,0.00,OVC,,0.00,837.3,WeatherDisplay:10.37,2013-06-27 04:05:00,
2013-06-27 14:10:00,77.2,62.7,29.95,NW,315,9.0,15.0,61,0.00,OVC,,0.00,1061.6,WeatherDisplay:10.37,2013-06-27 04:10:00,
2013-06-27 14:15:00,77.1,63.1,29.95,NW,315,5.0,13.0,62,0.00,OVC,,0.00,1020.8,WeatherDisplay:10.37,2013-06-27 04:15:00,
2013-06-27 14:20:00,77.9,62.9,29.95,NW,315,12.0,20.0,60,0.00,OVC,,0.00,1016.3,WeatherDisplay:10.37,2013-06-27 04:20:00,
2013-06-27 14:25:00,77.1,62.6,29.95,NW,315,8.0,14.0,61,0.00,OVC,,0.00,206.1,WeatherDisplay:10.37,2013-06-27 04:25:00,
2013-06-27 14:30:00,75.4,62.8,29.95,NW,315,10.0,13.0,65,0.00,OVC,,0.00,962.6,WeatherDisplay:10.37,2013-06-27 04:30:00,
2013-06-27 14:35:00,75.7,63.1,29.95,NW,315,9.0,14.0,65,0.00,OVC,,0.00,908.4,WeatherDisplay:10.37,2013-06-27 04:35:00,
2013-06-27 14:40:00,76.2,63.6,29.95,NW,315,12.0,15.0,65,0.00,OVC,,0.00,899.4,WeatherDisplay:10.37,2013-06-27 04:40:00,
2013-06-27 14:45:00,76.1,63.5,29.95,NW,315,7.0,15.0,65,0.00,OVC,,0.00,872.4,WeatherDisplay:10.37,2013-06-27 04:45:00,
2013-06-27 14:50:00,76.3,63.2,29.95,NW,315,7.0,13.0,64,0.00,OVC,,0.00,856.0,WeatherDisplay:10.37,2013-06-27 04:50:00,
2013-06-27 14:55:00,76.1,63.0,29.95,NW,315,8.0,13.0,64,0.00,OVC,,0.00,832.2,WeatherDisplay:10.37,2013-06-27 04:55:00,
2013-06-27 15:00:00,76.0,62.9,29.95,NW,315,6.0,13.0,64,0.00,OVC,,0.00,808.6,WeatherDisplay:10.37,2013-06-27 05:00:00,
2013-06-27 15:05:00,76.1,63.5,29.95,NW,315,9.0,14.0,65,0.00,OVC,,0.00,789.8,WeatherDisplay:10.37,2013-06-27 05:05:00,
2013-06-27 15:10:00,75.5,62.9,29.95,NW,315,10.0,15.0,65,0.00,OVC,,0.00,769.1,WeatherDisplay:10.37,2013-06-27 05:10:00,
2013-06-27 15:15:00,75.4,62.8,29.95,NW,315,7.0,15.0,65,0.00,OVC,,0.00,751.6,WeatherDisplay:10.37,2013-06-27 05:15:00,
2013-06-27 15:20:00,75.3,62.7,29.94,NW,315,9.0,15.0,65,0.00,OVC,,0.00,723.4,WeatherDisplay:10.37,2013-06-27 05:20:00,
2013-06-27 15:25:00,75.5,63.3,29.95,NW,315,8.0,13.0,66,0.00,OVC,,0.00,710.6,WeatherDisplay:10.37,2013-06-27 05:25:00,
2013-06-27 15:30:00,75.6,63.0,29.95,NW,315,9.0,14.0,65,0.00,OVC,,0.00,681.7,WeatherDisplay:10.37,2013-06-27 05:30:00,
2013-06-27 15:35:00,74.5,62.4,29.95,NW,315,9.0,15.0,66,0.00,OVC,,0.00,654.4,WeatherDisplay:10.37,2013-06-27 05:35:00,
2013-06-27 15:40:00,73.9,62.2,29.95,NW,315,10.0,17.0,67,0.00,OVC,,0.00,634.1,WeatherDisplay:10.37,2013-06-27 05:40:00,
2013-06-27 15:45:00,73.7,62.5,29.95,NW,315,10.0,15.0,68,0.00,OVC,,0.00,607.8,WeatherDisplay:10.37,2013-06-27 05:45:00,
2013-06-27 15:50:00,73.6,62.4,29.95,NW,315,10.0,16.0,68,0.00,OVC,,0.00,583.4,WeatherDisplay:10.37,2013-06-27 05:50:00,
2013-06-27 15:55:00,72.8,61.7,29.95,NW,315,9.0,17.0,68,0.00,OVC,,0.00,554.3,WeatherDisplay:10.37,2013-06-27 05:55:00,
2013-06-27 16:00:00,73.0,61.9,29.95,NW,315,10.0,15.0,68,0.00,CLR,,0.00,529.1,WeatherDisplay:10.37,2013-06-27 06:00:00,
2013-06-27 16:05:00,73.0,61.8,29.96,NW,315,10.0,15.0,68,0.00,CLR,,0.00,500.4,WeatherDisplay:10.37,2013-06-27 06:05:00,
2013-06-27 16:10:00,72.6,61.8,29.96,NW,315,9.0,15.0,69,0.00,CLR,,0.00,470.5,WeatherDisplay:10.37,2013-06-27 06:10:00,
2013-06-27 16:15:00,73.0,62.2,29.96,NW,315,9.0,15.0,69,0.00,CLR,,0.00,445.6,WeatherDisplay:10.37,2013-06-27 06:15:00,
2013-06-27 16:20:00,72.9,61.7,29.96,NW,315,8.0,15.0,68,0.00,CLR,,0.00,418.0,WeatherDisplay:10.37,2013-06-27 06:20:00,
2013-06-27 16:25:00,72.7,61.9,29.96,NW,315,9.0,15.0,69,0.00,CLR,,0.00,389.9,WeatherDisplay:10.37,2013-06-27 06:25:00,
2013-06-27 16:30:00,72.0,61.6,29.96,NW,315,7.0,15.0,70,0.00,CLR,,0.00,356.4,WeatherDisplay:10.37,2013-06-27 06:30:00,
2013-06-27 16:35:00,71.5,61.6,29.97,NW,315,8.0,15.0,71,0.00,CLR,,0.00,330.5,WeatherDisplay:10.37,2013-06-27 06:35:00,
2013-06-27 16:40:00,71.4,61.9,29.96,NW,315,9.0,15.0,72,0.00,CLR,,0.00,306.2,WeatherDisplay:10.37,2013-06-27 06:40:00,
2013-06-27 16:50:00,70.7,61.2,29.96,NW,315,9.0,17.0,72,0.00,CLR,,0.00,248.0,WeatherDisplay:10.37,2013-06-27 06:50:00,
2013-06-27 16:55:00,70.9,61.8,29.96,NW,315,10.0,15.0,73,0.00,CLR,,0.00,223.3,WeatherDisplay:10.37,2013-06-27 06:55:00,
2013-06-27 17:00:00,70.5,61.4,29.97,NW,315,6.0,15.0,73,0.00,CLR,,0.00,199.9,WeatherDisplay:10.37,2013-06-27 07:00:00,
2013-06-27 17:05:00,70.7,61.6,29.97,NW,315,7.0,12.0,73,0.00,CLR,,0.00,172.6,WeatherDisplay:10.37,2013-06-27 07:05:00,
2013-06-27 17:10:00,70.3,61.3,29.97,NW,315,8.0,13.0,73,0.00,CLR,,0.00,149.3,WeatherDisplay:10.37,2013-06-27 07:10:00,
2013-06-27 17:15:00,70.1,61.4,29.97,NW,315,10.0,13.0,74,0.00,CLR,,0.00,125.6,WeatherDisplay:10.37,2013-06-27 07:15:00,
2013-06-27 17:25:00,69.4,61.5,29.97,NW,315,7.0,12.0,76,0.00,CLR,,0.00,64.1,WeatherDisplay:10.37,2013-06-27 07:25:00,
2013-06-27 17:30:00,68.9,61.4,29.97,NW,315,7.0,13.0,77,0.00,CLR,,0.00,55.3,WeatherDisplay:10.37,2013-06-27 07:30:00,
2013-06-27 17:35:00,68.7,61.6,29.97,NW,315,7.0,10.0,78,0.00,CLR,,0.00,25.5,WeatherDisplay:10.37,2013-06-27 07:35:00,
2013-06-27 17:40:00,68.1,61.3,29.97,NW,315,8.0,13.0,79,0.00,CLR,,0.00,18.3,WeatherDisplay:10.37,2013-06-27 07:40:00,
2013-06-27 17:45:00,67.7,61.6,29.98,NW,315,5.0,13.0,81,0.00,CLR,,0.00,13.0,WeatherDisplay:10.37,2013-06-27 07:45:00,
2013-06-27 17:50:00,67.4,62.0,29.98,NW,315,6.0,9.0,83,0.00,CLR,,0.00,7.2,WeatherDisplay:10.37,2013-06-27 07:50:00,
2013-06-27 17:55:00,67.3,61.9,29.98,NW,315,6.0,10.0,83,0.00,CLR,,0.00,3.1,WeatherDisplay:10.37,2013-06-27 07:55:00,
2013-06-27 18:00:00,67.1,62.1,29.98,NW,315,6.0,9.0,84,0.00,CLR,,0.00,0.0,WeatherDisplay:10.37,2013-06-27 08:00:00,
2013-06-27 18:05:00,66.9,61.9,29.99,NW,315,5.0,8.0,84,0.00,CLR,,0.00,0.0,WeatherDisplay:10.37,2013-06-27 08:05:00,
2013-06-27 18:10:00,67.1,62.1,29.99,NW,315,3.0,8.0,84,0.00,CLR,,0.00,0.0,WeatherDisplay:10.37,2013-06-27 08:10:00,
2013-06-27 18:15:00,67.1,62.1,29.99,NW,315,5.0,8.0,84,0.00,CLR,,0.00,0.0,WeatherDisplay:10.37,2013-06-27 08:15:00,
2013-06-27 18:20:00,67.3,62.3,29.99,NW,315,5.0,8.0,84,0.00,CLR,,0.00,0.0,WeatherDisplay:10.37,2013-06-27 08:20:00,
2013-06-27 18:25:00,67.3,61.9,30.00,NW,315,6.0,10.0,83,0.00,CLR,,0.00,0.0,WeatherDisplay:10.37,2013-06-27 08:25:00,
2013-06-27 18:30:00,67.3,61.9,29.99,NW,315,3.0,8.0,83,0.00,CLR,,0.00,0.0,WeatherDisplay:10.37,2013-06-27 08:30:00,
2013-06-27 18:35:00,67.3,61.6,30.00,NW,315,3.0,11.0,82,0.00,CLR,,0.00,0.0,WeatherDisplay:10.37,2013-06-27 08:35:00,
2013-06-27 18:40:00,67.3,61.6,29.99,NW,315,7.0,9.0,82,0.00,CLR,,0.00,0.0,WeatherDisplay:10.37,2013-06-27 08:40:00,
2013-06-27 18:45:00,67.3,61.6,30.00,NW,315,5.0,10.0,82,0.00,CLR,,0.00,0.0,WeatherDisplay:10.37,2013-06-27 08:45:00,
2013-06-27 18:50:00,67.1,61.4,30.00,NW,315,5.0,9.0,82,0.00,CLR,,0.00,0.0,WeatherDisplay:10.37,2013-06-27 08:50:00,
2013-06-27 18:55:00,67.1,61.4,30.00,NW,315,6.0,12.0,82,0.00,CLR,,0.00,0.0,WeatherDisplay:10.37,2013-06-27 08:55:00,
2013-06-27 19:00:00,67.1,61.4,30.00,NW,315,5.0,13.0,82,0.00,CLR,,0.00,0.0,WeatherDisplay:10.37,2013-06-27 09:00:00,
2013-06-27 19:05:00,66.9,61.2,30.00,NW,315,7.0,12.0,82,0.00,CLR,,0.00,0.0,WeatherDisplay:10.37,2013-06-27 09:05:00,
2013-06-27 19:10:00,66.9,61.2,30.00,NW,315,6.0,10.0,82,0.00,CLR,,0.00,0.0,WeatherDisplay:10.37,2013-06-27 09:10:00,
2013-06-27 19:15:00,66.9,61.6,30.01,NW,315,6.0,13.0,83,0.00,CLR,,0.00,0.0,WeatherDisplay:10.37,2013-06-27 09:15:00,
2013-06-27 19:20:00,66.8,61.5,30.01,NW,315,5.0,11.0,83,0.00,CLR,,0.00,0.0,WeatherDisplay:10.37,2013-06-27 09:20:00,
2013-06-27 19:25:00,66.9,61.6,30.01,NW,315,6.0,11.0,83,0.00,CLR,,0.00,0.0,WeatherDisplay:10.37,2013-06-27 09:25:00,
2013-06-27 19:30:00,66.9,61.6,30.02,NW,315,6.0,9.0,83,0.00,CLR,,0.00,0.0,WeatherDisplay:10.37,2013-06-27 09:30:00,
2013-06-27 19:35:00,66.9,61.6,30.01,NW,315,5.0,8.0,83,0.00,CLR,,0.00,0.0,WeatherDisplay:10.37,2013-06-27 09:35:00,
2013-06-27 19:40:00,66.7,61.4,30.02,NW,315,5.0,9.0,83,0.00,CLR,,0.00,0.0,WeatherDisplay:10.37,2013-06-27 09:40:00,
2013-06-27 19:45:00,66.7,61.4,30.02,NW,315,5.0,9.0,83,0.00,CLR,,0.00,0.0,WeatherDisplay:10.37,2013-06-27 09:45:00,
2013-06-27 19:50:00,66.7,61.7,30.02,NW,315,3.0,8.0,84,0.00,CLR,,0.00,0.0,WeatherDisplay:10.37,2013-06-27 09:50:00,
2013-06-27 19:55:00,66.7,61.7,30.03,NW,315,5.0,8.0,84,0.00,CLR,,0.00,0.0,WeatherDisplay:10.37,2013-06-27 09:55:00,
2013-06-27 20:00:00,66.7,61.7,30.03,NW,315,6.0,8.0,84,0.00,CLR,,0.00,0.0,WeatherDisplay:10.37,2013-06-27 10:00:00,
2013-06-27 20:05:00,66.7,61.7,30.03,NW,315,5.0,7.0,84,0.00,CLR,,0.00,0.0,WeatherDisplay:10.37,2013-06-27 10:05:00,
2013-06-27 20:10:00,66.7,61.7,30.03,NW,315,5.0,9.0,84,0.00,CLR,,0.00,0.0,WeatherDisplay:10.37,2013-06-27 10:10:00,
2013-06-27 20:15:00,66.7,61.7,30.03,NW,315,3.0,6.0,84,0.00,CLR,,0.00,0.0,WeatherDisplay:10.37,2013-06-27 10:15:00,
2013-06-27 20:20:00,66.6,61.6,30.03,NW,315,5.0,6.0,84,0.00,CLR,,0.00,0.0,WeatherDisplay:10.37,2013-06-27 10:20:00,
2013-06-27 20:25:00,66.6,61.6,30.03,NW,315,2.0,6.0,84,0.00,CLR,,0.00,0.0,WeatherDisplay:10.37,2013-06-27 10:25:00,
2013-06-27 20:30:00,66.7,61.7,30.03,NW,315,1.0,6.0,84,0.00,CLR,,0.00,0.0,WeatherDisplay:10.37,2013-06-27 10:30:00,
2013-06-27 20:35:00,66.6,61.6,30.03,NW,315,3.0,6.0,84,0.00,CLR,,0.00,0.0,WeatherDisplay:10.37,2013-06-27 10:35:00,
2013-06-27 20:40:00,66.7,61.7,30.03,NW,315,2.0,6.0,84,0.00,CLR,,0.00,0.0,WeatherDisplay:10.37,2013-06-27 10:40:00,
2013-06-27 20:45:00,66.7,61.7,30.03,NW,315,3.0,6.0,84,0.00,CLR,,0.00,0.0,WeatherDisplay:10.37,2013-06-27 10:45:00,
2013-06-27 20:50:00,66.7,61.7,30.03,NW,315,1.0,6.0,84,0.00,CLR,,0.00,0.0,WeatherDisplay:10.37,2013-06-27 10:50:00,
2013-06-27 20:55:00,66.6,61.6,30.03,NW,315,2.0,4.0,84,0.00,CLR,,0.00,0.0,WeatherDisplay:10.37,2013-06-27 10:55:00,
2013-06-27 21:00:00,66.6,61.6,30.03,NW,315,2.0,4.0,84,0.00,CLR,,0.00,0.0,WeatherDisplay:10.37,2013-06-27 11:00:00,
2013-06-27 21:05:00,66.6,61.6,30.04,NW,315,2.0,4.0,84,0.00,CLR,,0.00,0.0,WeatherDisplay:10.37,2013-06-27 11:05:00,
2013-06-27 21:10:00,66.4,61.5,30.04,NW,315,1.0,4.0,84,0.00,CLR,,0.00,0.0,WeatherDisplay:10.37,2013-06-27 11:10:00,
2013-06-27 21:15:00,66.4,61.4,30.04,NW,315,1.0,4.0,84,0.00,CLR,,0.00,0.0,WeatherDisplay:10.37,2013-06-27 11:15:00,
2013-06-27 21:20:00,66.4,61.4,30.04,NW,315,1.0,4.0,84,0.00,CLR,,0.00,0.0,WeatherDisplay:10.37,2013-06-27 11:20:00,
2013-06-27 21:25:00,66.4,61.4,30.04,NW,315,1.0,4.0,84,0.00,CLR,,0.00,0.0,WeatherDisplay:10.37,2013-06-27 11:25:00,
2013-06-27 21:30:00,66.4,61.4,30.04,NW,315,2.0,4.0,84,0.00,CLR,,0.00,0.0,WeatherDisplay:10.37,2013-06-27 11:30:00,
2013-06-27 21:35:00,66.2,61.2,30.04,NW,315,1.0,3.0,84,0.00,CLR,,0.00,0.0,WeatherDisplay:10.37,2013-06-27 11:35:00,
2013-06-27 21:40:00,66.3,61.4,30.04,NW,315,2.0,4.0,84,0.00,CLR,,0.00,0.0,WeatherDisplay:10.37,2013-06-27 11:40:00,
2013-06-27 21:45:00,66.2,61.2,30.05,NW,315,2.0,4.0,84,0.00,CLR,,0.00,0.0,WeatherDisplay:10.37,2013-06-27 11:45:00,
2013-06-27 21:50:00,66.2,61.2,30.05,NW,315,2.0,4.0,84,0.00,CLR,,0.00,0.0,WeatherDisplay:10.37,2013-06-27 11:50:00,
2013-06-27 21:55:00,66.2,61.2,30.04,NW,315,2.0,4.0,84,0.00,CLR,,0.00,0.0,WeatherDisplay:10.37,2013-06-27 11:55:00,
2013-06-27 22:00:00,66.2,61.2,30.04,NW,315,2.0,3.0,84,0.00,CLR,,0.00,0.0,WeatherDisplay:10.37,2013-06-27 12:00:00,
2013-06-27 22:05:00,66.2,61.2,30.04,NW,315,1.0,5.0,84,0.00,CLR,,0.00,0.0,WeatherDisplay:10.37,2013-06-27 12:05:00,
2013-06-27 22:10:00,66.2,61.2,30.04,NW,315,1.0,3.0,84,0.00,CLR,,0.00,0.0,WeatherDisplay:10.37,2013-06-27 12:10:00,
2013-06-27 22:15:00,66.2,61.2,30.04,NW,315,1.0,2.0,84,0.00,CLR,,0.00,0.0,WeatherDisplay:10.37,2013-06-27 12:15:00,
2013-06-27 22:20:00,66.2,61.2,30.04,NW,315,2.0,3.0,84,0.00,CLR,,0.00,0.0,WeatherDisplay:10.37,2013-06-27 12:20:00,
2013-06-27 22:25:00,66.2,61.2,30.05,NW,315,2.0,3.0,84,0.00,CLR,,0.00,0.0,WeatherDisplay:10.37,2013-06-27 12:25:00,
2013-06-27 22:30:00,66.2,61.2,30.05,NW,315,1.0,3.0,84,0.00,CLR,,0.00,0.0,WeatherDisplay:10.37,2013-06-27 12:30:00,
2013-06-27 22:35:00,66.2,61.2,30.04,NW,315,2.0,3.0,84,0.00,CLR,,0.00,0.0,WeatherDisplay:10.37,2013-06-27 12:35:00,
2013-06-27 22:40:00,66.2,61.2,30.04,NW,315,2.0,5.0,84,0.00,CLR,,0.00,0.0,WeatherDisplay:10.37,2013-06-27 12:40:00,
2013-06-27 22:45:00,66.4,61.4,30.04,NW,315,3.0,6.0,84,0.00,CLR,,0.00,0.0,WeatherDisplay:10.37,2013-06-27 12:45:00,
2013-06-27 22:50:00,66.4,61.1,30.05,NW,315,2.0,6.0,83,0.00,CLR,,0.00,0.0,WeatherDisplay:10.37,2013-06-27 12:50:00,
2013-06-27 22:55:00,66.6,61.2,30.04,NW,315,3.0,6.0,83,0.00,CLR,,0.00,0.0,WeatherDisplay:10.37,2013-06-27 12:55:00,
2013-06-27 23:00:00,66.6,60.9,30.05,NW,315,1.0,6.0,82,0.00,CLR,,0.00,0.0,WeatherDisplay:10.37,2013-06-27 13:00:00,
2013-06-27 23:05:00,66.6,60.9,30.04,NW,315,2.0,5.0,82,0.00,CLR,,0.00,0.0,WeatherDisplay:10.37,2013-06-27 13:05:00,
2013-06-27 23:10:00,66.6,60.9,30.04,NW,315,2.0,6.0,82,0.00,CLR,,0.00,0.0,WeatherDisplay:10.37,2013-06-27 13:10:00,
2013-06-27 23:15:00,66.6,60.9,30.04,NW,315,2.0,4.0,82,0.00,CLR,,0.00,0.0,WeatherDisplay:10.37,2013-06-27 13:15:00,
2013-06-27 23:20:00,66.6,60.9,30.04,NW,315,1.0,4.0,82,0.00,CLR,,0.00,0.0,WeatherDisplay:10.37,2013-06-27 13:20:00,
2013-06-27 23:25:00,66.6,60.9,30.04,NW,315,2.0,3.0,82,0.00,CLR,,0.00,0.0,WeatherDisplay:10.37,2013-06-27 13:25:00,
2013-06-27 23:30:00,66.4,61.1,30.04,NW,315,2.0,4.0,83,0.00,CLR,,0.00,0.0,WeatherDisplay:10.37,2013-06-27 13:30:00,
2013-06-27 23:35:00,66.4,61.1,30.04,NW,315,1.0,4.0,83,0.00,CLR,,0.00,0.0,WeatherDisplay:10.37,2013-06-27 13:35:00,
2013-06-27 23:40:00,66.2,60.9,30.04,NW,315,1.0,3.0,83,0.00,CLR,,0.00,0.0,WeatherDisplay:10.37,2013-06-27 13:40:00,
2013-06-27 23:50:00,65.6,60.9,30.04,NW,315,0.0,2.0,85,0.00,CLR,,0.00,0.0,WeatherDisplay:10.37,2013-06-27 13:50:00,
2013-06-27 23:55:00,64.9,60.3,30.03,NW,315,0.0,2.0,85,0.00,CLR,,0.00,0.0,WeatherDisplay:10.37,2013-06-27 13:55:00,